Simultaneous Nadir Overpasses (SNOs) Predictions

Prediction of SNOs between AQUA and GOES-15 Satellite Orbit:

Table of predicted SNOs for the next 14.0 days since TLE Epoch: 3/7/2015
Index Date Time (AQUA) AQUA Lat,Lon GOES-15 Lat,Lon Distance(km) Time Diff (sec)
1 03/07/2015 10:26:35 -0.61,-132.65 -0.02,-135.34 306.02 80
2 03/07/2015 22:47:59 -0.53,-137.83 0.02,-135.31 286.91 80
3 03/09/2015 22:35:48 0.09,-134.87 0.02,-135.28 45.97 80
4 03/11/2015 22:23:37 0.73,-131.91 0.02,-135.24 378.20 80
5 03/12/2015 10:44:52 0.40,-137.06 -0.01,-135.25 206.72 80
6 03/14/2015 10:32:41 -0.27,-134.11 -0.01,-135.20 124.73 80
7 03/14/2015 22:54:04 -0.89,-139.29 0.01,-135.16 469.63 80
8 03/16/2015 10:20:28 -0.85,-131.13 -0.01,-135.14 455.60 80
9 03/16/2015 22:41:52 -0.24,-136.32 0.01,-135.10 138.73 80
10 03/18/2015 22:29:39 0.37,-133.35 0.01,-135.04 191.83 80
11 03/19/2015 10:50:54 0.73,-138.51 -0.00,-135.05 392.63 80




NCC Satellite Simultaneous Nadir Overpasses (SNOs) Prediction Service
